C/2014 B1 ( Schwartz )

Japanese version
Home page
Updated on July 29, 2021

---------------------------------------------------------------------

* Profile

Discovery Date January 28, 2014
Magnitude 19.9 mag
Discoverer Michael Schwartz (Tenagra Observatory near Nogales, AZ, U.S.A.)

* Pictures

* Orbital Elements

Epoch 2017 Sept. 4.0 TT = JDT 2458000.5
T 2017 Sept. 10.53356 TT                                Rudenko
q   9.5565930            (2000.0)            P               Q
z  -0.0003925      Peri.  345.84156     -0.85029249     -0.50400330
 +/-0.0000005      Node   161.39570     +0.51719285     -0.85353171
e   1.0037507      Incl.   28.37225     +0.09754095     +0.13215252
From 1260 observations 2014 Jan. 28-2021 May 1, mean residual 0".6.

* Magnitudes Graph

        m1 = -13.5 + 5 log d + 25.0 log r

---------------------------------------------------------------------

The orbital elements are published on M.P.E.C. 2021-L04.
The magnitudes graphs are made with Comet for Windows.

---------------------------------------------------------------------

Copyright(C) Seiichi Yoshida (comet@aerith.net). All rights reserved.